Simultaneous Nadir Overpasses (SNOs) Predictions

Prediction of SNOs between GOES-14 and AQUA Satellite Orbit:

Table of predicted SNOs for the next 14.0 days since TLE Epoch: 1/11/2019
Index Date Time (GOES-14) GOES-14 Lat,Lon AQUA Lat,Lon Distance(km) Time Diff (sec)
1 01/12/2019 20:26:39 0.03,-104.07 0.35,-102.48 180.96 80
2 01/13/2019 08:47:55 -0.03,-104.31 0.70,-107.64 378.78 80
3 01/15/2019 08:35:44 -0.03,-104.32 0.05,-104.68 41.77 80
4 01/17/2019 08:20:53 -0.02,-104.32 -0.60,-101.73 295.01 80
5 01/17/2019 20:42:16 0.03,-104.07 -0.60,-106.90 322.18 80
6 01/19/2019 20:32:45 0.02,-104.07 0.05,-103.95 14.30 80
7 01/21/2019 20:20:33 0.01,-104.07 0.65,-100.98 350.55 80
8 01/22/2019 08:39:09 -0.01,-104.32 0.39,-106.15 208.84 80
9 01/24/2019 08:29:38 -0.01,-104.31 -0.27,-103.20 127.55 80
10 01/24/2019 20:48:21 0.02,-104.07 -0.93,-108.37 489.88 80




NCC Satellite Simultaneous Nadir Overpasses (SNOs) Prediction Service
